Theta_e
352 353 355 355 351 350 349 348 349 348 349 349 351 355 357 358 357 357 357 357 357 357 357 357 358 357 358 359 359 359 358 358 357 356 357 357 357 358 357 358 359 356 355 357 356 356 356 356 357 357 355 355 358 356 356 357 356 357 357 355 356 356 355
352 352 353 355 352 351 349 348 348 348 348 349 350 353 356 358 358 357 357 357 357 357 357 358 358 357 357 359 360 360 358 358 358 358 358 358 359 357 354 355 358 357 356 357 356 356 357 356 357 357 355 354 357 358 357 357 357 357 358 356 355 357 355
352 351 353 355 353 352 350 347 347 348 348 350 350 352 355 357 357 357 358 358 358 358 357 359 359 357 357 359 361 360 358 357 358 359 359 358 358 357 354 354 356 356 358 358 357 358 358 357 357 357 356 355 357 359 358 357 355 356 359 357 355 357 355
354 349 353 356 353 352 349 347 347 347 348 350 350 352 355 357 357 357 358 359 359 359 358 359 360 358 357 359 361 361 358 356 358 359 359 358 357 358 357 357 356 357 358 358 357 358 358 358 357 357 358 357 358 360 359 357 355 353 357 359 357 356 356
357 350 352 356 353 353 350 346 347 347 348 350 350 352 354 357 358 358 359 359 360 360 359 359 359 358 358 359 360 360 359 359 359 358 358 358 358 357 357 357 358 358 358 357 356 356 357 359 359 358 359 359 359 360 359 358 357 355 356 360 359 357 358
359 352 351 354 353 353 351 346 347 347 348 349 350 353 354 355 358 359 359 360 360 360 359 359 359 357 358 360 359 359 360 360 359 358 358 358 358 358 357 358 358 357 356 356 356 356 358 359 359 359 360 360 359 360 359 359 359 357 357 359 359 358 359
360 354 350 351 351 352 349 346 348 348 348 350 350 353 354 355 358 359 359 360 359 360 360 359 358 358 358 360 359 358 359 360 360 358 358 358 357 356 357 358 357 356 356 356 355 356 357 357 358 358 359 359 359 360 360 359 359 359 358 359 359 358 359
362 360 356 350 347 350 348 345 347 348 349 350 350 352 354 354 357 357 358 360 359 360 360 359 358 358 358 358 358 358 358 358 359 358 358 357 355 355 355 356 356 356 356 356 356 356 356 356 358 359 359 359 359 360 360 359 358 359 359 359 359 357 357
364 366 368 360 347 345 348 345 345 349 351 351 350 351 352 352 356 357 357 359 359 359 360 358 357 357 358 357 357 357 357 357 357 357 357 356 356 355 355 355 356 356 356 356 357 357 356 356 357 358 359 358 358 358 358 357 357 358 358 359 359 358 357
366 369 375 374 359 345 345 346 345 348 350 351 350 350 350 351 354 356 357 358 358 358 358 357 356 356 357 356 355 355 356 355 356 357 356 356 356 355 355 355 355 355 355 355 355 356 357 356 356 357 357 357 357 357 356 356 357 357 358 359 360 360 359
369 371 373 376 371 358 349 345 345 348 350 351 350 350 351 351 352 354 355 356 356 356 356 355 355 354 354 355 354 354 354 355 356 356 355 356 357 355 354 356 356 355 355 355 355 356 356 356 356 356 357 356 357 357 356 356 357 358 359 359 359 360 360
367 372 371 370 374 373 362 351 348 348 350 351 350 351 352 352 352 354 354 354 354 354 354 354 354 353 353 354 354 353 353 354 354 354 354 355 355 355 355 355 356 356 355 355 355 355 356 355 355 356 356 356 356 357 356 356 357 358 359 359 358 358 359
363 369 368 365 372 376 370 363 356 349 350 353 351 352 353 352 353 353 353 354 353 352 353 353 353 353 352 353 353 352 353 353 353 353 353 353 353 353 355 354 354 355 355 355 355 354 355 355 355 355 356 355 356 356 357 358 358 359 359 359 358 358 358
361 364 364 363 369 374 370 367 363 354 352 355 354 354 354 353 354 354 351 352 352 351 352 352 351 353 353 352 352 352 352 352 352 352 352 351 351 350 351 353 352 353 353 354 355 354 354 354 355 355 355 356 356 356 358 359 359 359 359 359 359 359 359
362 363 364 363 369 375 370 365 363 356 354 357 358 356 355 354 357 358 356 355 355 352 352 351 350 352 353 352 352 351 352 352 351 351 350 350 350 348 348 349 350 350 351 352 354 354 353 353 354 354 355 357 358 357 357 358 358 359 359 360 359 359 359
360 361 362 362 365 370 371 366 361 354 354 358 358 356 354 354 357 359 358 358 359 358 358 355 354 354 353 352 353 352 351 352 351 351 350 350 351 348 347 348 348 349 351 351 351 351 351 351 352 352 353 355 357 358 357 356 356 357 358 359 360 359 358
357 357 358 358 357 358 361 362 358 354 355 356 354 354 355 355 356 357 356 357 358 359 360 356 354 357 357 353 354 354 352 351 351 350 351 352 352 349 348 348 348 349 352 352 351 349 349 350 349 350 350 351 353 355 356 356 355 354 355 356 356 356 356
354 354 355 356 354 351 353 354 351 351 354 354 352 353 354 355 356 356 356 357 356 358 360 357 354 358 360 357 356 357 355 353 352 352 353 355 355 354 354 353 352 352 352 353 353 351 349 349 349 350 350 350 351 352 353 353 353 352 351 351 351 351 353
351 351 352 354 353 352 352 351 348 349 351 352 352 354 354 354 354 355 356 356 356 357 358 357 355 358 361 360 358 359 360 358 357 356 356 357 357 357 358 360 361 360 356 354 354 354 351 350 350 351 351 350 349 348 348 348 350 350 350 350 349 350 352
351 352 352 352 352 351 350 349 348 349 351 353 354 355 355 355 354 355 355 354 354 355 355 356 356 357 359 359 358 359 360 360 360 359 359 358 356 356 357 359 360 360 360 358 357 356 355 353 352 352 352 352 350 348 347 346 348 349 349 349 349 350 351
351 351 349 350 351 349 349 348 347 349 351 352 354 354 354 355 357 357 356 354 354 355 355 356 356 355 354 355 357 359 360 360 361 361 360 360 358 357 357 358 354 354 359 361 358 357 357 356 355 355 355 354 352 350 349 349 348 349 349 349 349 350 351
348 347 346 346 346 346 345 345 345 347 348 349 351 351 350 351 354 357 356 354 353 354 353 353 352 352 351 351 355 359 359 358 359 359 359 359 358 357 357 357 354 354 358 360 358 358 358 358 357 358 357 356 354 352 350 350 349 350 350 350 350 350 351
344 344 344 343 343 343 343 343 343 344 345 346 347 348 348 349 350 352 351 349 348 349 349 349 350 351 352 351 352 355 355 356 355 355 355 355 355 356 356 356 355 356 357 357 356 357 358 357 357 358 357 357 356 354 352 350 350 350 351 351 351 351 351
342 343 343 342 342 343 341 341 341 340 341 341 341 342 344 344 345 346 345 345 346 346 346 346 347 349 351 350 350 351 352 351 351 351 352 353 354 356 356 355 354 354 354 355 355 355 355 356 356 355 355 355 354 353 352 351 350 349 350 351 351 352 352
342 341 341 341 341 340 339 339 338 337 338 337 337 338 340 341 342 342 341 341 342 341 341 343 345 346 348 347 348 349 349 348 348 348 348 349 350 352 352 351 351 352 353 353 353 353 352 352 352 351 352 351 350 351 349 348 348 348 348 350 350 351 351
341 341 341 340 340 339 338 337 336 335 335 335 335 336 336 338 339 337 336 337 337 337 338 339 341 343 344 345 346 347 347 346 346 346 346 346 346 346 346 345 345 348 350 349 349 349 348 347 347 347 347 347 347 347 346 345 345 344 344 346 346 347 348
337 339 340 339 337 337 336 335 334 333 333 334 334 334 334 334 334 333 333 333 334 334 335 336 337 338 339 341 343 344 344 344 343 344 344 344 344 344 344 342 342 343 345 345 346 347 346 345 344 344 343 343 342 341 339 339 338 336 335 338 339 341 345
332 333 334 333 332 332 332 332 332 332 332 333 332 331 331 331 330 330 331 332 332 332 334 335 336 335 335 336 337 338 339 340 340 341 341 341 342 343 343 343 343 344 345 346 345 345 343 342 341 339 337 335 333 332 330 331 331 330 330 332 334 336 339
330 329 329 329 329 329 330 331 332 332 332 333 332 331 331 329 328 328 328 329 329 330 331 332 332 332 331 332 333 334 334 334 335 338 338 337 338 339 340 341 342 343 344 344 343 343 341 340 338 336 335 333 331 328 327 328 329 329 328 329 330 331 333
329 327 326 327 328 329 329 330 331 331 330 329 329 330 331 332 331 330 328 328 327 327 328 328 328 328 329 329 329 329 329 328 327 330 334 335 336 336 337 338 338 338 339 340 341 341 340 339 338 338 337 337 334 328 327 330 332 331 331 331 331 331 330
328 326 325 326 328 328 328 328 330 330 330 329 329 330 331 330 329 330 331 330 327 326 327 326 327 328 330 330 328 327 327 327 325 323 324 326 329 330 329 330 333 335 336 337 337 338 336 335 337 339 339 339 336 330 329 332 333 333 333 333 332 331 329
326 323 323 325 328 328 327 326 327 328 329 329 328 329 329 326 324 326 329 328 327 327 327 325 324 327 328 329 330 330 331 333 331 327 322 324 327 329 328 329 332 334 334 333 332 333 333 331 332 335 338 339 338 333 332 333 333 332 332 333 332 331 329
325 323 325 327 328 328 327 327 327 327 326 326 325 325 325 324 323 325 327 326 327 329 329 325 323 326 327 326 327 330 330 332 334 332 330 330 332 333 333 334 333 332 333 331 329 330 331 330 330 332 334 337 337 335 333 332 330 328 328 329 328 328 327
327 328 329 328 328 328 328 329 329 327 327 326 325 325 325 326 326 326 326 325 326 327 327 326 324 325 326 325 326 328 328 328 330 331 330 330 332 332 332 332 331 330 330 329 328 329 329 329 329 330 331 332 332 330 328 325 323 322 321 320 320 320 320
331 332 330 328 328 329 329 329 328 327 327 326 326 326 327 328 328 327 326 327 326 325 325 326 326 325 326 326 325 325 327 327 327 329 329 329 329 329 327 327 327 327 327 325 325 326 326 327 327 328 329 329 327 325 323 322 320 319 317 317 316 316 316
331 331 330 329 328 328 327 327 327 327 327 327 327 326 327 328 328 328 328 327 326 325 325 327 328 327 327 326 325 326 328 328 328 328 328 327 327 326 325 323 323 324 324 323 322 322 322 323 324 324 325 326 325 323 322 320 319 318 317 317 317 317 316
331 330 330 329 328 328 327 327 327 327 327 327 327 327 327 328 329 328 328 328 326 325 327 328 328 328 328 327 327 328 329 328 329 329 327 326 326 326 325 324 324 323 323 322 322 321 320 319 319 320 322 323 323 322 321 320 319 318 318 318 318 317 317
331 330 330 329 328 327 327 326 327 327 327 327 327 327 328 329 329 329 329 329 328 327 328 328 327 327 328 327 327 328 328 327 328 329 328 327 327 326 325 324 324 323 322 322 322 322 320 318 316 316 317 318 319 318 318 318 318 317 317 317 317 317 317
Wind_Speed
10 11 9 7 8 11 12 17 22 20 19 24 27 29 30 29 28 27 26 27 27 26 26 25 23 23 22 20 20 20 19 18 17 16 16 18 17 17 19 17 15 16 17 16 14 14 13 11 12 13 12 11 10 10 10 8 8 7 5 5 6 6 5
8 11 11 8 9 10 12 19 23 21 21 24 26 28 30 30 29 29 27 28 27 27 27 25 24 24 22 21 20 20 21 19 18 16 15 17 16 15 17 17 15 15 15 15 14 13 13 12 13 13 11 12 11 11 11 10 11 8 6 6 7 6 5
7 11 11 9 10 10 12 17 21 21 22 24 25 25 28 31 31 30 29 28 27 27 27 26 24 24 23 22 20 20 21 20 19 17 16 16 16 14 15 15 14 14 13 13 13 13 14 12 12 12 11 12 12 11 11 11 11 10 7 7 7 7 6
5 10 11 9 10 11 13 17 19 21 24 25 26 25 28 31 31 31 31 29 27 27 27 26 25 25 23 22 21 20 21 20 20 19 17 16 16 16 16 14 14 14 13 14 14 14 15 13 13 13 12 12 12 12 11 10 10 11 10 8 8 9 8
4 8 11 9 10 10 11 16 20 22 24 26 26 26 30 32 30 31 31 29 28 27 27 27 25 25 24 22 21 21 21 20 19 19 17 16 16 16 16 15 15 15 14 14 14 13 14 14 14 15 13 12 12 12 11 10 9 9 10 10 9 9 9
3 4 8 9 9 9 10 16 20 23 26 27 26 27 31 32 28 30 30 28 28 26 25 26 25 25 25 22 21 21 21 20 19 18 17 16 17 16 16 15 14 15 14 14 14 14 14 14 15 15 14 13 13 12 11 11 11 10 10 10 10 10 9
3 5 7 9 10 8 11 16 20 23 26 28 27 27 31 30 28 29 29 28 28 26 25 26 25 25 26 24 21 20 21 20 19 18 16 16 17 16 16 15 14 14 13 13 14 15 14 14 14 14 14 14 14 13 12 12 13 11 11 11 11 11 10
5 5 7 8 11 10 10 16 19 21 25 28 28 27 29 29 29 29 28 27 28 27 26 27 26 26 26 24 22 21 21 20 20 19 17 16 16 15 16 16 14 14 14 13 14 14 15 15 15 13 13 13 14 13 13 13 12 12 13 12 11 10 10
5 6 5 4 10 11 11 17 21 20 23 26 27 28 27 27 29 30 29 29 28 27 27 27 26 26 26 25 23 22 22 21 19 19 18 17 16 15 16 16 15 15 15 15 14 14 13 13 15 15 13 13 13 13 14 14 12 13 13 12 11 10 10
4 5 2 1 6 11 12 18 20 18 21 24 25 26 26 27 30 30 30 31 29 29 28 26 26 26 26 24 22 21 21 21 20 19 18 17 16 16 16 16 15 15 15 15 15 15 14 13 14 15 14 13 14 14 15 14 13 13 13 12 12 11 10
2 1 2 2 1 6 10 14 16 16 19 22 24 24 23 26 29 30 31 31 30 30 30 27 26 27 26 25 23 22 20 21 21 19 19 18 17 16 15 14 15 15 14 14 15 15 16 15 15 15 15 13 13 13 14 14 14 14 14 13 12 12 12
2 1 1 1 1 4 4 8 12 15 19 21 23 22 22 24 26 28 31 31 30 31 31 28 26 26 27 25 24 24 22 21 21 20 19 19 18 17 16 15 15 15 14 14 15 14 15 15 15 14 15 15 14 13 13 13 13 14 14 13 12 12 12
5 2 2 3 2 5 2 4 10 15 18 20 21 21 22 22 22 26 29 28 29 31 30 29 26 26 29 27 24 24 23 22 21 20 20 19 17 17 17 17 17 16 16 16 14 13 14 15 15 12 13 16 15 13 12 12 12 12 12 13 13 12 12
5 2 1 3 2 4 3 3 8 14 18 19 19 20 22 22 21 24 26 25 27 29 29 29 26 25 28 28 25 24 23 22 21 19 19 18 17 17 17 18 19 18 18 18 16 15 14 14 15 13 12 14 15 14 13 13 14 14 13 13 14 13 12
6 3 1 3 2 4 4 4 6 13 19 19 18 18 19 19 17 18 19 18 20 22 24 25 25 26 28 27 26 25 23 22 21 18 17 16 16 18 16 15 17 18 19 20 19 17 15 14 15 15 13 14 15 15 12 12 14 15 14 14 14 14 13
7 6 2 2 3 3 4 5 6 11 15 16 17 17 18 19 17 16 15 15 13 10 11 14 14 18 27 28 25 25 25 23 21 18 16 13 12 17 17 13 11 13 18 23 21 17 15 15 15 15 15 15 16 16 15 13 13 15 15 15 15 15 14
5 6 3 3 5 6 5 3 6 9 12 15 15 14 15 17 18 19 18 18 15 10 10 13 9 9 20 26 22 21 24 24 22 20 17 12 8 12 14 12 9 7 9 15 18 17 15 14 14 15 17 17 17 17 16 15 15 14 14 15 15 16 16
5 6 4 1 2 3 7 7 9 12 14 14 12 11 12 12 14 18 21 22 22 19 16 19 17 10 14 21 20 19 21 22 22 20 16 10 8 8 7 6 5 5 5 6 8 11 11 10 10 10 10 13 16 16 15 15 16 16 16 16 17 18 18
4 4 3 2 3 2 3 6 6 7 10 9 8 9 9 9 10 15 20 21 24 24 18 18 23 19 16 20 22 19 19 20 20 19 16 13 12 11 8 5 3 3 5 5 5 6 7 7 7 4 3 5 10 12 11 12 14 16 17 17 17 18 19
5 4 3 5 5 2 5 9 8 6 8 7 6 7 5 5 8 13 17 17 21 22 18 19 25 24 19 20 22 21 18 18 19 20 19 18 17 16 14 11 8 5 6 7 7 6 5 6 6 6 3 3 6 8 8 8 9 10 12 14 13 14 16
6 6 6 7 7 7 9 11 9 7 8 8 8 8 5 4 7 10 14 17 19 19 18 22 25 24 21 20 21 19 17 15 17 19 20 18 18 17 16 16 18 16 11 9 10 10 9 8 7 8 8 8 7 7 8 8 7 7 9 10 11 11 11
7 7 8 8 10 11 13 15 15 11 7 6 8 9 7 3 5 8 10 12 11 10 11 12 13 14 16 15 13 14 13 13 15 17 18 18 16 15 14 15 18 17 13 12 13 13 12 10 9 9 9 9 9 9 9 9 9 9 9 9 9 9 8
9 9 9 10 12 14 16 18 19 15 11 9 9 10 8 5 4 6 8 9 9 11 11 10 9 5 3 4 5 7 8 9 11 12 13 15 15 14 13 13 12 11 11 13 14 14 13 12 11 11 9 8 9 9 9 9 9 9 9 9 8 7 7
10 9 9 10 12 15 17 18 18 16 15 16 15 13 12 12 13 15 17 17 14 10 8 9 8 7 6 6 7 7 5 5 7 9 9 10 12 13 13 12 10 8 8 11 13 13 12 12 11 11 10 10 9 8 8 8 8 7 7 8 8 7 6
11 12 12 12 14 16 16 17 18 17 18 20 19 17 15 16 19 21 21 20 18 16 15 13 12 10 9 7 6 7 6 4 4 6 7 6 7 9 11 11 11 10 11 12 13 11 9 8 9 9 9 8 8 7 6 5 4 5 5 5 6 6 6
13 15 16 15 16 16 15 15 16 17 18 18 18 18 19 20 22 23 22 22 23 22 19 16 15 15 14 11 7 6 6 6 5 5 5 4 5 6 7 7 8 11 12 11 12 11 8 7 8 9 9 8 6 5 3 1 1 1 2 3 4 4 5
16 17 18 18 17 17 16 15 15 16 17 17 17 18 20 22 24 24 23 24 25 22 19 18 19 20 20 18 14 12 12 11 10 10 10 10 11 10 9 8 9 11 10 9 10 11 9 8 9 9 7 6 4 3 3 3 3 4 3 1 1 4 5
18 18 19 19 19 18 17 16 16 17 17 16 16 17 19 22 24 23 24 24 22 20 19 20 21 21 22 23 21 21 20 17 15 17 17 15 14 13 12 11 11 11 11 11 12 11 11 11 11 10 9 9 8 9 9 10 10 11 11 9 9 9 7
15 15 16 18 18 17 18 18 17 16 16 15 16 16 17 20 21 21 22 21 18 17 19 20 21 21 20 20 21 22 22 20 18 18 20 19 17 15 14 13 12 12 13 13 12 11 12 13 12 12 12 11 11 12 14 16 16 17 16 15 15 14 11
12 13 14 16 16 17 18 19 18 17 17 16 16 17 17 19 19 19 19 17 14 13 15 16 18 19 17 16 17 18 17 18 17 16 17 18 17 16 14 14 13 12 10 11 12 11 10 11 11 12 13 12 11 12 15 17 17 16 16 15 13 12 11
11 12 13 14 14 14 15 17 17 16 16 15 15 15 15 16 17 17 16 14 12 12 12 12 13 14 14 13 13 13 11 12 13 14 13 13 13 13 12 11 12 11 9 11 13 12 10 8 6 10 13 14 13 14 15 14 13 12 12 11 10 9 9
10 12 12 12 13 14 14 14 14 14 14 13 12 11 11 11 12 14 14 12 11 11 11 10 11 12 10 10 10 9 7 6 7 9 10 9 7 8 8 8 10 10 10 11 12 11 12 12 9 7 8 11 14 14 13 12 10 10 9 8 7 7 6
10 10 10 10 12 14 14 13 13 13 13 11 10 9 8 9 10 12 11 10 10 11 10 10 11 10 8 8 8 8 8 7 5 7 8 8 8 9 9 9 8 9 11 12 11 9 10 11 11 12 13 12 14 15 14 11 10 10 9 7 6 5 4
9 8 10 13 14 14 14 13 13 13 13 12 9 8 7 8 10 11 10 8 9 11 11 10 10 10 8 6 6 6 8 12 12 13 14 14 14 15 15 12 10 10 12 13 12 11 11 11 11 14 16 17 16 15 14 12 10 9 8 7 6 6 5
9 9 13 16 15 14 14 14 13 13 13 11 9 8 8 9 10 10 9 9 8 9 11 10 8 9 9 8 6 5 7 10 13 16 18 19 18 18 17 15 12 12 12 12 12 11 10 10 11 13 13 14 14 12 11 11 10 9 8 8 7 6 5
13 14 13 15 15 15 13 11 10 11 11 9 9 8 8 8 9 9 8 7 7 8 9 9 8 8 10 9 8 8 9 11 12 12 15 19 19 18 17 15 13 11 10 10 9 9 8 6 7 7 7 8 9 9 8 8 8 8 7 7 6 6 5
9 11 11 13 14 14 12 10 9 9 8 7 6 6 6 6 7 8 7 6 7 8 9 9 8 8 8 8 9 10 10 12 13 13 14 15 15 15 15 13 10 8 8 7 7 6 6 5 4 3 3 3 5 6 6 6 5 5 5 5 5 5 4
5 6 8 10 11 11 10 8 6 6 6 6 5 4 4 4 5 5 5 5 5 6 7 7 7 8 9 8 9 9 9 9 11 12 13 13 13 13 12 11 10 9 8 7 7 7 6 4 4 3 2 2 3 3 4 4 4 5 5 6 6 5 5
Wind_Direction
167 168 176 174 164 163 164 165 173 181 174 163 160 160 161 164 167 170 174 178 178 180 180 181 185 183 179 181 183 181 176 172 175 179 180 182 185 186 185 186 191 193 189 190 195 193 194 195 197 206 200 185 193 200 196 197 204 213 209 198 198 202 203
179 171 175 176 168 165 166 164 170 178 170 166 166 161 160 164 167 170 175 178 180 182 181 181 187 188 185 183 183 182 179 176 177 179 183 184 187 191 189 190 193 190 192 196 195 191 195 201 203 206 201 189 192 203 203 205 211 211 205 209 209 208 212
194 177 173 173 169 165 165 165 169 171 164 164 166 161 161 165 168 172 175 178 181 184 183 182 186 190 189 184 182 183 182 181 179 178 182 185 186 188 186 190 192 188 193 200 197 194 196 201 200 197 197 191 192 204 210 212 213 203 199 221 224 220 227
215 183 171 167 167 163 165 166 167 167 163 164 167 164 163 166 170 174 176 179 181 183 184 184 186 188 188 185 185 185 182 182 183 181 185 188 186 187 187 188 190 191 196 199 201 199 195 197 196 193 199 198 195 204 210 212 211 198 197 221 227 221 231
261 196 173 163 165 163 164 167 166 166 165 166 169 170 168 168 171 174 176 179 181 184 185 185 187 187 186 186 188 188 182 182 185 184 187 191 187 188 191 189 190 195 197 199 201 199 195 199 200 200 203 200 199 208 210 206 211 204 201 217 227 222 229
275 226 182 166 165 165 163 166 166 166 168 169 171 172 171 171 171 172 175 178 181 184 185 186 187 188 188 187 188 188 185 184 186 187 191 192 188 190 192 189 192 195 196 199 202 198 198 203 203 204 204 199 201 211 209 204 209 213 209 218 227 221 226
234 261 211 174 164 165 165 167 168 168 169 171 172 169 168 171 172 172 175 178 181 183 185 186 187 188 190 189 188 189 189 188 189 190 193 191 191 196 194 189 192 196 196 200 201 199 201 204 205 209 208 203 205 209 209 209 209 211 215 221 229 224 224
189 240 233 183 166 165 166 170 171 170 168 169 170 167 167 170 171 173 176 178 182 184 186 188 188 188 189 189 191 192 191 192 192 192 194 193 194 199 198 194 194 198 200 199 199 202 204 204 205 210 210 207 210 210 211 215 212 211 217 225 232 231 227
188 206 232 198 173 168 166 174 176 172 167 167 170 169 169 170 170 174 177 179 183 185 187 190 190 188 186 188 194 194 189 191 194 195 198 198 198 201 200 201 203 204 203 200 199 202 207 207 206 208 211 211 214 216 217 220 217 215 221 227 232 238 233
207 190 186 312 191 175 167 174 177 173 167 167 171 172 173 173 171 174 178 180 184 186 188 192 191 188 186 189 195 192 187 191 194 196 199 198 200 203 203 205 206 205 204 203 203 204 206 207 206 209 213 213 218 220 217 219 219 217 223 228 233 241 239
215 153 97 23 217 169 168 176 176 171 166 167 172 176 177 175 173 175 178 180 184 186 189 193 191 187 187 191 195 191 189 192 193 194 197 198 201 203 202 204 203 201 203 206 205 206 208 206 208 215 212 208 220 223 215 219 223 219 223 231 237 241 241
179 48 108 190 107 112 155 182 171 164 163 165 172 178 177 173 172 174 177 180 184 185 187 191 191 188 187 191 194 193 193 195 195 195 197 201 204 200 197 201 202 201 205 208 205 207 213 208 209 219 214 206 216 225 221 224 227 223 225 233 241 243 240
166 163 181 231 145 92 92 181 162 161 164 163 169 174 171 169 170 170 172 177 181 184 186 188 189 188 187 189 192 195 197 195 196 201 200 201 205 202 199 202 204 203 204 207 208 209 213 210 208 216 214 208 211 220 225 226 226 228 230 234 243 248 244
115 112 311 265 207 106 114 178 153 155 160 156 157 163 164 165 167 168 170 173 178 182 184 187 189 188 188 189 192 198 202 196 196 203 202 199 203 208 209 203 201 206 207 206 208 208 210 212 212 213 212 212 214 218 224 227 226 229 232 236 242 247 250
113 144 238 261 218 130 147 190 155 150 152 141 135 144 152 153 153 160 165 165 169 177 181 185 190 189 188 190 193 199 203 200 200 202 204 205 203 208 219 214 203 206 209 207 205 206 208 210 212 214 214 217 218 219 223 226 224 225 230 235 239 242 247
140 164 177 332 346 55 128 166 155 144 137 119 115 129 144 150 152 157 158 153 153 159 168 176 185 190 190 190 194 200 202 204 204 201 206 218 208 204 218 228 217 206 206 207 205 201 202 207 212 217 218 218 219 217 220 224 226 228 229 231 238 243 244
117 139 142 356 357 4 13 79 99 90 86 85 95 119 141 151 156 162 169 172 173 173 174 179 186 203 197 191 193 200 201 204 206 204 210 222 208 198 209 219 217 194 185 199 202 198 199 206 213 217 218 222 224 219 215 217 224 230 230 230 238 244 243
108 119 129 88 71 24 9 29 45 46 60 82 106 130 147 153 155 164 174 180 186 191 191 188 189 199 198 189 188 193 196 197 199 201 206 205 183 179 189 197 206 197 173 172 183 187 186 184 192 202 205 212 217 215 213 214 219 226 230 234 237 239 237
103 102 115 89 110 141 95 85 75 53 63 89 117 127 141 155 166 182 185 184 190 195 191 186 188 192 194 189 186 183 183 185 188 191 195 194 187 182 172 148 121 161 200 201 179 172 173 167 171 172 146 165 186 196 205 213 220 225 229 232 233 231 229
80 77 79 69 66 68 94 109 123 108 90 92 92 85 98 137 166 195 200 193 191 190 184 186 191 193 196 195 190 185 181 180 182 186 193 199 201 197 191 188 189 191 206 212 206 195 189 188 193 199 203 187 176 178 187 201 213 221 227 231 230 226 222
74 73 69 66 61 58 75 95 105 95 79 79 88 91 95 129 162 189 200 198 192 186 187 194 197 199 203 201 193 190 190 188 185 186 192 197 197 195 194 200 208 212 213 217 220 217 211 208 206 207 215 221 214 200 196 203 209 212 221 228 228 224 220
63 68 73 68 65 66 73 85 93 93 76 61 76 91 98 124 167 170 177 186 176 150 150 169 181 196 205 199 186 185 191 193 192 190 189 188 184 184 190 199 207 210 210 217 225 224 220 218 216 215 215 218 220 218 213 216 220 217 217 220 220 218 217
56 53 65 70 74 78 78 81 90 101 105 96 83 83 97 118 130 113 98 93 94 90 90 96 95 100 144 148 145 166 185 197 197 190 183 177 170 170 182 194 199 200 201 209 216 219 221 224 223 224 227 226 224 223 218 220 225 225 222 222 224 223 221
83 74 73 73 72 76 79 81 84 90 92 88 80 75 83 91 89 84 79 79 91 103 100 99 99 93 95 99 103 120 150 186 196 186 177 168 161 161 168 172 172 174 188 202 208 211 216 220 218 219 224 224 222 222 221 222 226 232 231 229 233 235 231
107 99 89 82 77 77 83 88 88 88 85 81 79 80 85 91 92 89 85 85 91 92 85 89 100 104 105 107 100 106 121 132 151 165 170 164 153 156 160 157 157 171 191 200 198 191 190 195 197 195 196 199 201 207 215 220 226 242 249 237 235 238 235
114 116 111 104 99 95 92 90 89 90 90 87 89 93 98 102 100 92 87 85 83 77 71 76 91 98 104 113 118 111 107 100 99 119 144 151 136 135 144 154 174 191 195 191 183 175 165 160 164 164 165 168 177 191 202 189 168 225 257 229 214 202 197
99 110 115 114 113 111 105 101 98 96 93 92 93 95 98 100 97 91 89 86 81 74 70 73 82 89 94 100 103 100 98 101 104 101 105 116 118 116 123 142 168 181 178 167 164 166 163 155 148 143 141 148 151 141 121 107 92 71 57 59 155 143 152
92 100 106 104 102 105 107 106 105 102 97 92 92 94 96 96 93 90 89 86 81 81 83 81 79 80 85 89 91 88 86 88 95 97 95 96 103 110 121 133 143 146 144 141 140 138 134 132 129 123 116 110 102 97 97 97 89 80 75 74 76 89 106
93 97 101 98 93 95 98 97 95 97 97 97 98 98 97 95 94 91 90 89 85 85 86 85 80 76 76 80 83 83 82 79 82 92 95 92 92 99 106 114 122 126 129 131 129 129 130 126 120 119 120 115 106 102 101 99 93 85 80 78 78 81 87
98 100 102 101 100 98 97 95 95 96 100 104 106 102 98 97 97 95 94 95 95 90 86 85 84 79 74 73 74 75 79 78 75 82 91 92 92 94 96 101 103 104 114 123 126 131 136 136 143 149 143 135 126 117 109 103 96 90 85 81 79 80 80
110 115 118 119 117 111 105 104 105 105 107 110 111 108 105 104 101 99 99 102 102 97 92 92 94 87 79 76 74 70 75 81 80 82 87 92 95 97 99 98 90 81 84 100 108 108 93 87 135 164 161 156 146 127 113 105 101 99 97 90 85 81 76
120 133 145 149 140 127 122 121 118 114 113 113 114 113 111 110 108 107 110 113 110 104 99 101 105 98 82 72 77 87 97 105 108 110 109 110 113 108 106 102 92 85 81 82 88 88 69 55 61 94 132 157 153 134 120 116 109 102 98 93 87 78 64
149 161 162 152 139 128 127 129 128 127 125 119 113 109 109 113 114 114 118 121 118 116 113 110 112 112 92 64 72 93 92 78 102 139 140 134 130 123 120 121 112 100 92 88 92 92 75 65 64 66 78 108 129 130 129 126 115 105 100 93 83 68 48
152 158 132 120 118 115 112 108 109 114 118 119 119 116 113 117 122 124 127 128 127 128 125 119 117 118 105 82 88 97 73 66 89 117 125 127 128 123 121 124 122 110 98 93 96 98 90 84 78 73 82 101 116 125 127 118 105 98 92 82 75 65 49
88 99 114 118 116 110 105 102 102 106 110 116 126 129 124 124 132 137 135 128 130 135 130 124 122 119 111 106 110 101 72 75 94 104 107 113 118 114 108 105 104 105 100 88 81 81 83 84 81 78 86 99 106 109 109 100 89 81 72 65 61 54 42
74 81 100 114 117 118 118 119 120 118 116 119 126 126 124 126 134 141 141 135 138 138 132 127 121 116 115 115 110 93 81 90 103 109 111 114 114 110 106 101 95 91 88 79 68 57 49 51 65 75 81 89 94 92 84 77 71 62 54 49 43 37 33
86 86 97 112 121 125 128 126 125 121 119 121 124 121 118 119 126 134 140 143 144 138 133 133 130 124 126 124 109 94 89 96 105 116 124 122 117 117 116 111 104 94 82 74 63 45 27 15 24 46 56 70 87 88 75 66 55 37 28 21 14 13 16
103 99 111 125 131 134 135 134 134 134 132 131 132 131 121 111 115 130 139 145 152 149 142 149 157 150 145 141 124 107 106 111 111 117 127 130 128 128 124 118 120 122 113 101 85 67 54 41 36 43 50 46 53 58 58 50 29 14 4 355 349 341 332